Weather History for Watsonville, CA

Change the Weather History Date:

Tuesday, August 5, 2014

  Actual Average Record
Temperature  
Mean Temperature 69 °F 63 °F  
Max Temperature 75 °F 73 °F 81 °F (2001)
Min Temperature 62 °F 53 °F 49 °F (2002)
Degree Days  
Heating Degree Days 0    
Month to date heating degree days 0  
Since 1 June heating degree days 108  
Since 1 July heating degree days 15  
Cooling Degree Days 4    
Month to date cooling degree days 12  
Year to date cooling degree days 135  
Since 1 June cooling degree days 91  
Growing Degree Days 18 (Base 50)    
Moisture  
Dew Point 57 °F    
Average Humidity 71    
Maximum Humidity 84    
Minimum Humidity 57    
Precipitation  
Precipitation 0.00 in - 0.04 in (1955)
Month to date precipitation 0.00  
Year to date precipitation 8.24  
Since 1 July precipitation 0.06  
Sea Level Pressure  
Sea Level Pressure 30.04 in    
Wind  
Wind Speed 4 mph (SSW)    
Max Wind Speed 14 mph    
Max Gust Speed 16 mph    
Visibility 10 miles    
Events      
T = Trace of Precipitation, MM = Missing Value Source: NWS Daily Summary

Daily Weather History Graph

Daily Weather History Graph

Search for Another Location

Airport:

Trip Planner

Search our weather history database for the weather conditions in past years. The results will help you decide how hot, cold, wet, or windy it might be!

Date:

Astronomy

Aug. 05, 2014 Rise Set
Actual Time 6:15 AM PDT 8:09 PM PDT
Civil Twilight 5:47 AM PDT 8:38 PM PDT
Nautical Twilight 5:13 AM PDT 9:12 PM PDT
Astronomical Twilight 4:36 AM PDT 9:49 PM PDT
Moon 3:29 PM PDT (8/5) 1:07 AM PDT (8/5)
Length of Visible Light 14h 50m
Length of Day
13h 53m
Waxing Gibbous, 69% of the Moon is Illuminated
Aug 5
Waxing Gibbous
Aug 10
Full
Aug 17
Last Quarter
Aug 25
New
Sep 2
First Quarter

Hourly Weather History & Observations

Time (PDT) Temp. Dew Point Humidity Pressure Visibility Wind Dir Wind Speed Gust Speed Precip Events Conditions
12:53 AM 63.0 °F 55.9 °F 78% 30.02 in 10.0 mi West 3.5 mph - N/A   Overcast
1:53 AM 62.1 °F 55.0 °F 78% 30.01 in 10.0 mi SW 3.5 mph - N/A   Overcast
2:53 AM 62.1 °F 55.9 °F 80% 30.02 in 10.0 mi Calm Calm - N/A   Overcast
3:53 AM 62.1 °F 55.9 °F 80% 30.02 in 10.0 mi Calm Calm - N/A   Overcast
4:53 AM 62.1 °F 55.9 °F 80% 30.03 in 10.0 mi Calm Calm - N/A   Overcast
5:53 AM 63.0 °F 55.9 °F 78% 30.03 in 10.0 mi Calm Calm - N/A   Overcast
6:53 AM 63.0 °F 55.9 °F 78% 30.04 in 10.0 mi Calm Calm - N/A   Overcast
7:53 AM 63.0 °F 55.9 °F 78% 30.04 in 10.0 mi Calm Calm - N/A   Overcast
8:53 AM 64.0 °F 55.9 °F 75% 30.05 in 10.0 mi Variable 3.5 mph - N/A   Overcast
9:53 AM 66.0 °F 57.0 °F 73% 30.06 in 10.0 mi SW 6.9 mph - N/A   Mostly Cloudy
10:53 AM 66.9 °F 57.0 °F 70% 30.08 in 10.0 mi SW 8.1 mph - N/A   Overcast
11:16 AM 69.1 °F 57.0 °F 65% 30.08 in 10.0 mi SSW 10.4 mph - N/A   Overcast
11:53 AM 71.1 °F 57.0 °F 61% 30.08 in 10.0 mi South 10.4 mph - N/A   Overcast
12:48 PM 71.6 °F 57.2 °F 60% 30.08 in 10.0 mi SW 6.9 mph - N/A   Scattered Clouds
12:53 PM 70.0 °F 57.0 °F 63% 30.08 in 10.0 mi SSW 10.4 mph - N/A   Scattered Clouds
1:53 PM 72.0 °F 57.0 °F 59% 30.06 in 10.0 mi SW 8.1 mph - N/A   Clear
2:53 PM 73.0 °F 57.9 °F 59% 30.04 in 10.0 mi SW 6.9 mph - N/A   Clear
3:53 PM 73.9 °F 57.9 °F 57% 30.02 in 10.0 mi WSW 9.2 mph - N/A   Clear
4:53 PM 70.0 °F 57.9 °F 65% 30.01 in 10.0 mi WSW 11.5 mph - N/A   Clear
5:53 PM 70.0 °F 57.9 °F 65% 30.01 in 10.0 mi SW 4.6 mph - N/A   Clear
6:53 PM 64.9 °F 57.9 °F 78% 30.02 in 10.0 mi South 5.8 mph - N/A   Clear
7:37 PM 64.0 °F 57.9 °F 80% 30.03 in 10.0 mi SSW 4.6 mph - N/A   Mostly Cloudy
7:53 PM 64.0 °F 57.9 °F 80% 30.03 in 10.0 mi SSW 5.8 mph - N/A   Overcast
8:53 PM 63.0 °F 57.9 °F 84% 30.05 in 10.0 mi South 5.8 mph - N/A   Overcast
9:53 PM 62.1 °F 57.9 °F 86% 30.06 in 10.0 mi Calm Calm - N/A   Overcast
10:04 PM 63.0 °F 57.9 °F 84% 30.06 in 10.0 mi Calm Calm - N/A   Overcast
10:49 PM 62.6 °F 57.2 °F 82% 30.06 in 10.0 mi East 3.5 mph - N/A   Overcast
10:53 PM 63.0 °F 57.9 °F 84% 30.05 in 10.0 mi ENE 3.5 mph - N/A   Overcast
11:28 PM 63.0 °F 57.9 °F 84% 30.05 in 10.0 mi Calm Calm - N/A   Overcast
11:53 PM 63.0 °F 57.9 °F 84% 30.05 in 10.0 mi Calm Calm - N/A   Overcast